Location: Newark
(16.3678°N, 77.8722°E)
Time: 10:03:38
(UTC+00:00)

Tiros 1 - Pass Details

Date: 15 December 2019
Orbit: 630 x 664 km, 48.4° (Epoch: 26 January)

Event Time Altitude Azimuth Distance (km) Brightness Sun altitude
Rises 08:10:41 0° 292° (WNW) 2,906 10.6 45.0°
Reaches altitude 10° 08:13:50 10° 269° (W) 1,997 10.1 44.6°
Maximum altitude 08:16:31 15° 233° (SW) 1,668 10.3 44.3°
Drops below altitude 10° 08:19:12 10° 197° (SSW) 1,997 10.7 44.0°
Sets 08:22:23 0° 174° (S) 2,906 11.1 43.6°
